Emerado, ND

5:32 PM CST on February 27, 2017 (GMT -0600)
Grand Forks International

Weather History for KGFK - June, 2013

Change the Weather History Date:

Thursday, June 27, 2013

  Actual Average Record
Temperature  
Mean Temperature 75 °F 67 °F  
Max Temperature 85 °F 79 °F 98 °F (1961)
Min Temperature 65 °F 55 °F 41 °F (1968)
Degree Days  
Heating Degree Days 0 2  
Month to date heating degree days 77 99  
Since 1 June heating degree days 77 99  
Since 1 July heating degree days 9965 9511  
Cooling Degree Days 10 4  
Month to date cooling degree days 95 63  
Year to date cooling degree days 104 80  
Since 1 June cooling degree days 95 63  
Growing Degree Days 25 (Base 50)    
Moisture  
Dew Point 58 °F    
Average Humidity 58    
Maximum Humidity 84    
Minimum Humidity 32    
Precipitation  
Precipitation 0.00 in 0.12 in 1.61 in (1995)
Month to date precipitation 3.07 3.12  
Year to date precipitation 11.24 8.84  
Snow  
Snow 0.00 in 0.00 in - ()
Month to date snowfall 0.0 0.0  
Since 1 June snowfall 0.0 0.0  
Since 1 July snowfall 50.2 47.4  
Snow Depth 0.00 in    
Sea Level Pressure  
Sea Level Pressure 29.77 in    
Wind  
Wind Speed 14 mph (WNW)    
Max Wind Speed 28 mph    
Max Gust Speed 39 mph    
Visibility 10 miles    
Events      
T = Trace of Precipitation, MM = Missing Value Source: NWS Daily Summary

Daily Weather History Graph

Daily Weather History Graph

Search for Another Location

Airport or City:

Trip Planner

Search our weather history database for the weather conditions in past years. The results will help you decide how hot, cold, wet, or windy it might be!

Date:

Astronomy

Jun. 27, 2013 Rise Set
Actual Time 5:31 AM CDT 9:32 PM CDT
Civil Twilight 4:50 AM CDT 10:13 PM CDT
Nautical Twilight 3:53 AM CDT 11:10 PM CDT
Astronomical Twilight 2:17 AM CDT 12:44 AM CDT
Moon No Moon Rise 10:58 AM CDT
Length of Visible Light 17h 22m
Length of Day
16h 00m
Waning Gibbous, 76% of the Moon is Illuminated
Jun 27
Waning Gibbous
Jun 29
Last Quarter
Jul 8
New
Jul 15
First Quarter
Jul 22
Full

Hourly Weather History & Observations

Time (CDT) Temp. Heat Index Dew Point Humidity Pressure Visibility Wind Dir Wind Speed Gust Speed Precip Events Conditions
12:53 AM 66.9 °F - 61.0 °F 81% 29.72 in 10.0 mi West 6.9 mph - N/A   Clear
1:53 AM 66.9 °F - 60.1 °F 79% 29.72 in 10.0 mi WSW 6.9 mph - N/A   Clear
2:53 AM 66.9 °F - 61.0 °F 81% 29.71 in 10.0 mi WSW 9.2 mph - N/A   Clear
3:53 AM 68.0 °F - 59.0 °F 73% 29.72 in 10.0 mi West 9.2 mph - N/A   Clear
4:53 AM 66.9 °F - 60.1 °F 79% 29.73 in 10.0 mi West 10.4 mph - N/A   Clear
5:53 AM 66.9 °F - 60.1 °F 79% 29.75 in 10.0 mi West 10.4 mph - N/A   Mostly Cloudy
6:53 AM 66.9 °F - 60.1 °F 79% 29.75 in 10.0 mi WNW 11.5 mph - N/A   Mostly Cloudy
7:53 AM 70.0 °F - 59.0 °F 68% 29.77 in 10.0 mi WNW 13.8 mph - N/A   Partly Cloudy
8:53 AM 73.0 °F - 60.1 °F 64% 29.78 in 10.0 mi NW 12.7 mph - N/A   Partly Cloudy
9:53 AM 75.0 °F - 60.1 °F 60% 29.78 in 10.0 mi WNW 18.4 mph - N/A   Clear
10:53 AM 78.1 °F - 61.0 °F 56% 29.78 in 10.0 mi WNW 18.4 mph 24.2 mph N/A   Partly Cloudy
11:53 AM 80.1 °F 80.9 °F 60.1 °F 50% 29.78 in 10.0 mi WNW 17.3 mph 21.9 mph N/A   Scattered Clouds
12:53 PM 81.0 °F 81.1 °F 57.9 °F 45% 29.78 in 10.0 mi WNW 18.4 mph 28.8 mph N/A   Scattered Clouds
1:53 PM 82.9 °F 82.8 °F 59.0 °F 44% 29.77 in 10.0 mi West 17.3 mph 24.2 mph N/A   Mostly Cloudy
2:53 PM 82.9 °F 82.6 °F 57.9 °F 42% 29.76 in 10.0 mi WNW 20.7 mph 26.5 mph N/A   Mostly Cloudy
3:53 PM 82.0 °F 82.0 °F 57.9 °F 44% 29.76 in 10.0 mi WNW 13.8 mph 20.7 mph N/A   Scattered Clouds
4:53 PM 84.0 °F - 52.0 °F 33% 29.76 in 10.0 mi WNW 27.6 mph 38.0 mph N/A   Scattered Clouds
5:53 PM 82.9 °F - 51.1 °F 33% 29.77 in 10.0 mi NW 23.0 mph 31.1 mph N/A   Partly Cloudy
6:53 PM 79.0 °F - 55.9 °F 45% 29.79 in 10.0 mi NNW 19.6 mph 33.4 mph N/A   Partly Cloudy
7:53 PM 75.9 °F - 55.0 °F 48% 29.81 in 10.0 mi NW 13.8 mph - N/A   Partly Cloudy
8:53 PM 72.0 °F - 55.0 °F 55% 29.82 in 10.0 mi NNW 6.9 mph - N/A   Partly Cloudy
9:53 PM 68.0 °F - 55.9 °F 65% 29.82 in 10.0 mi WNW 4.6 mph - N/A   Partly Cloudy
10:53 PM 66.9 °F - 57.0 °F 70% 29.82 in 10.0 mi WNW 5.8 mph - N/A   Scattered Clouds
11:53 PM 64.9 °F - 59.0 °F 81% 29.82 in 10.0 mi WNW 8.1 mph - N/A   Partly Cloudy